Location: Unspecified
(0.0000°N, 0.0000°E)
Time: 05:41:50
(UTC+00:00)

S-56A Canister/Altair - Visible Passes

Search period start: 23 November 2014 00:00
Search period end: 03 December 2014 00:00
Orbit: 633 x 2502 km, 38.9° (Epoch: 17 November)

Date Brightness Start Highest point End Pass type
(mag) Time Alt. Az. Time Alt. Az. Time Alt. Az.
23 Nov 10.2 18:51:54 10° NW 19:06:46 73° SW 19:20:47 10° SE visible
23 Nov 11.4 21:02:57 10° W 21:13:50 24° SW 21:23:20 10° S visible
24 Nov 10.2 18:18:56 10° NW 18:33:34 81° SW 18:48:06 10° SE visible
24 Nov 11.3 20:28:46 10° W 20:40:43 28° SW 20:51:22 10° SSE visible
25 Nov 9.3 05:11:17 10° SSW 05:15:36 30° SE 05:19:28 10° E visible
25 Nov 10.2 17:46:07 10° NW 18:00:21 89° SW 18:15:17 10° SE visible
25 Nov 11.2 19:54:52 10° W 20:07:35 33° SW 20:19:14 10° SSE visible
26 Nov 9.6 04:39:16 10° SSW 04:43:27 24° SE 04:47:05 10° E visible
26 Nov 11.2 19:21:11 10° WNW 19:34:23 38° SW 19:46:57 10° SSE visible
27 Nov 9.9 04:07:13 10° SSW 04:11:13 20° SE 04:14:38 10° E visible
27 Nov 11.1 18:47:45 10° WNW 19:01:10 43° SW 19:14:30 10° SSE visible
27 Nov 11.8 21:04:46 10° SW 21:09:42 12° SSW 21:14:22 10° S visible
28 Nov 10.1 03:35:10 10° S 03:38:56 17° SSE 03:42:08 10° ESE visible
28 Nov 11.0 18:14:30 10° WNW 18:27:57 48° SW 18:41:56 10° SSE visible
28 Nov 11.8 20:29:06 10° WSW 20:36:24 15° SSW 20:43:17 10° S visible
29 Nov 10.3 03:03:06 10° S 03:06:34 15° SSE 03:09:32 10° ESE visible
29 Nov 7.2 05:05:48 10° WSW 05:11:01 64° NW 05:15:23 10° NE visible
29 Nov 11.8 19:54:12 10° WSW 20:03:04 18° SSW 20:11:34 10° S visible
30 Nov 10.5 02:31:01 10° S 02:34:07 13° SSE 02:36:49 10° SE visible
30 Nov 7.3 04:33:17 10° SW 04:38:58 86° NW 04:43:28 10° NE visible
30 Nov 11.8 19:19:47 10° WSW 19:29:44 21° SSW 19:39:31 10° S visible
01 Dec 10.8 02:03:52 10° SE 02:03:52 10° SE 02:03:57 10° SE visible
01 Dec 7.6 04:01:42 14° SW 04:06:53 74° SE 04:11:30 10° NE visible
01 Dec 11.8 18:45:44 10° W 18:56:24 24° SW 19:07:15 10° SSE visible
02 Dec 8.1 03:34:25 58° SSE 03:34:45 59° SE 03:39:30 10° ENE visible
02 Dec 11.8 18:11:59 10° W 18:23:04 27° SW 18:34:48 10° SSE visible
